GFSFLT2_con_lsi_102.txt.gz
Lid_Strength_Index
4 4 5 5 4 4 3 3 3 3 3 4 3 3 3 3 3 4 4 5 5 5 5 6 6 6 6 5 5 4 3 2
5 5 5 5 4 4 4 4 4 4 4 4 4 4 4 5 5 5 6 6 7 7 6 6 6 7 7 6 6 6 4 3
5 5 5 5 5 5 5 5 4 4 5 4 5 5 5 5 6 7 6 6 6 6 6 6 6 6 7 7 6 6 5 5
6 6 6 5 6 6 6 5 5 5 5 5 5 6 6 6 6 6 6 6 6 6 6 6 7 7 8 8 7 7 7 6
6 6 6 6 6 6 7 6 5 5 6 6 6 6 6 6 6 6 6 6 6 6 6 6 5 6 7 8 7 6 7 6
6 6 6 6 7 7 7 6 6 6 6 7 6 6 6 6 6 6 6 7 7 6 5 5 5 6 7 8 8 6 6 5
6 7 7 7 7 8 8 9 8 8 8 7 6 6 7 6 6 7 6 7 8 6 5 4 5 5 7 8 7 6 6 5
7 7 7 8 8 8 10 10 10 10 8 8 7 7 7 7 7 8 7 8 7 6 5 4 5 5 7 8 7 6 6 5
7 7 9 9 9 10 11 11 12 10 9 9 8 7 7 7 7 7 7 7 6 5 4 4 3 4 4 7 7 4 5 5
8 8 8 8 10 11 12 12 11 11 11 10 8 7 7 8 7 7 6 6 5 5 5 3 2 2 3 4 7 8 5 3
7 8 8 10 12 12 13 12 12 12 11 11 9 8 8 8 7 7 6 5 5 3 4 4 3 1 1 5 6 7 7 7
7 8 9 11 12 13 13 13 12 13 12 11 9 10 10 8 8 6 5 6 5 5 5 5 4 3 3 2 1 1 5 5
9 10 11 12 12 13 12 13 13 14 13 12 11 11 11 9 8 7 6 5 6 6 6 6 7 7 6 7 8 7 7 8
10 12 12 12 12 13 13 12 13 14 14 13 12 12 11 9 8 7 8 9 9 10 11 9 8 9 10 11 11 12 12 11
12 12 13 13 13 13 13 13 13 14 15 14 14 13 12 11 10 9 8 6 8 8 10 10 11 11 11 12 12 11 10 7
12 13 13 13 13 13 13 13 13 12 14 14 14 13 13 13 12 11 8 9 9 7 7 11 11 11 11 10 10 8 2 3
12 13 13 13 14 14 13 12 12 12 11 14 15 14 14 14 13 13 11 10 11 10 7 10 10 11 10 9 8 2 2 2
12 12 12 13 13 12 11 11 10 10 11 12 13 14 15 15 15 14 14 13 12 11 11 11 12 10 10 10 7 5 3 2
10 12 12 12 12 11 11 11 10 10 10 10 12 11 11 15 15 15 15 15 14 13 12 12 15 12 12 11 10 9 6 4
10 11 12 11 12 11 11 12 11 11 11 11 11 11 11 11 12 14 14 15 16 15 14 12 14 12 13 13 12 12 10 7

GFSFLT2_con_lsi_105.txt.gz
Lid_Strength_Index
3 3 3 3 3 3 3 3 2 2 2 2 2 2 2 2 2 2 2 3 3 4 5 6 6 6 6 6 6 6 6 5
3 2 3 3 3 3 4 3 2 2 2 2 2 2 2 3 2 3 4 5 5 5 5 5 5 5 5 5 6 5 6 5
4 4 4 4 4 4 4 3 3 2 3 3 3 3 3 3 4 5 5 5 5 5 5 5 5 6 6 6 5 6 6 6
4 4 4 4 4 4 4 3 3 3 3 3 3 4 4 4 4 5 5 6 5 5 5 5 6 6 7 7 6 5 6 6
4 4 4 4 4 4 4 4 4 4 4 4 4 4 5 5 5 5 5 5 4 5 5 5 5 5 7 7 7 6 6 6
4 4 4 4 4 4 5 5 5 5 4 4 5 5 5 5 5 5 4 5 5 5 6 6 5 4 6 7 7 5 5 5
4 4 5 5 6 6 6 6 6 7 6 6 6 6 6 5 6 5 5 5 6 6 6 5 4 4 6 7 7 5 5 5
5 5 5 6 6 7 7 8 8 8 8 8 7 6 6 7 6 5 6 5 6 5 5 4 4 3 5 7 6 4 5 4
5 6 6 6 7 8 8 9 10 10 10 10 8 7 7 6 5 6 5 6 5 5 5 4 3 4 2 6 7 3 3 4
6 6 7 7 8 9 10 11 11 11 11 10 9 8 7 6 6 6 6 5 5 5 5 4 4 3 4 5 7 7 4 3
6 6 7 7 8 9 11 12 12 13 12 11 10 8 7 6 7 7 7 6 5 6 5 5 6 5 4 6 8 8 8 7
6 6 6 8 7 9 11 12 12 13 13 12 11 9 9 7 7 7 7 7 7 6 5 6 7 8 7 7 7 6 6 6
7 7 8 9 9 10 12 12 12 13 14 13 13 11 10 9 7 7 7 5 7 8 6 8 10 11 10 11 12 10 7 8
8 8 9 10 11 12 12 12 12 13 14 15 14 12 11 10 10 8 9 9 10 11 10 11 11 12 12 11 11 11 12 12
9 9 11 12 12 12 12 12 12 12 13 14 15 13 12 12 13 11 11 7 9 10 11 11 12 13 12 11 11 10 9 9
8 10 11 12 12 13 12 12 11 11 11 13 13 14 14 14 13 13 14 11 10 8 9 11 12 12 12 12 11 7 4 3
10 11 12 12 13 12 12 12 11 10 9 10 10 12 14 14 14 13 14 14 12 11 9 10 12 12 12 12 11 9 7 5
11 12 11 11 12 11 10 11 10 9 8 11 10 9 9 10 12 14 14 14 15 14 13 12 13 12 13 12 11 10 8 6
10 10 10 11 10 9 9 10 9 9 9 9 11 9 9 9 10 10 12 13 14 15 14 13 14 13 14 14 13 12 10 9
9 9 9 9 10 9 9 10 10 9 9 10 10 10 10 10 10 9 9 11 11 13 15 14 14 11 13 14 14 14 12 9

GFSFLT2_con_lsi_111.txt.gz
Lid_Strength_Index
6 6 6 6 5 5 5 5 5 5 4 5 4 4 4 4 4 5 5 6 6 6 6 6 6 6 6 7 7 7 7 6
6 6 6 5 5 5 5 5 5 5 5 5 5 5 5 5 5 5 6 5 6 6 6 6 6 6 6 6 6 6 7 7
6 6 6 6 6 6 5 6 6 6 5 5 5 5 5 5 6 6 5 5 5 6 6 5 6 6 6 7 7 7 7 7
6 6 6 6 6 6 6 6 6 6 7 6 5 5 5 6 5 5 6 6 6 6 6 6 8 7 7 7 6 7 7 7
7 6 7 7 7 7 7 7 7 7 7 6 6 6 6 6 5 6 7 7 7 6 6 8 8 7 8 8 7 6 6 6
7 8 8 8 8 7 7 7 8 7 8 8 7 7 7 6 6 7 7 6 6 7 7 6 7 6 7 8 7 5 6 6
8 8 8 8 7 7 7 8 8 8 9 9 8 8 8 7 8 7 7 7 7 7 6 6 6 5 7 8 8 7 7 7
8 8 7 7 8 8 8 9 10 10 10 9 9 9 8 8 8 8 7 8 7 6 6 6 6 5 7 8 9 9 10 9
7 8 9 10 9 10 9 10 11 10 10 10 9 8 8 8 8 8 8 7 7 7 7 7 7 7 7 10 10 10 10 11
7 8 9 9 10 10 11 11 9 9 11 11 10 10 10 9 9 9 8 8 8 9 9 8 7 8 9 10 11 11 11 11
8 9 9 10 10 11 12 12 9 9 10 11 11 12 11 10 10 10 10 10 10 10 10 9 10 9 10 11 12 12 11 10
9 10 11 11 11 11 12 11 10 9 11 11 12 13 12 11 11 11 13 12 12 11 10 12 12 12 12 12 12 12 10 8
10 11 11 12 11 12 12 11 11 11 12 12 13 13 13 13 12 12 13 12 12 13 12 12 13 13 13 12 13 12 10 9
11 12 12 12 11 11 11 11 11 12 13 13 14 14 14 14 14 13 12 12 12 13 12 12 13 12 13 12 13 12 11 11
12 12 11 11 12 12 12 12 12 12 13 13 13 14 14 14 14 14 14 12 12 13 13 13 12 13 13 13 13 12 12 10
11 11 12 12 12 12 13 12 12 12 13 12 14 13 14 14 13 13 13 13 13 13 13 13 13 13 13 13 13 12 12 12
11 12 12 12 12 12 12 12 12 12 12 13 12 11 12 12 12 12 12 12 12 12 13 13 13 13 13 13 13 14 14 13
12 13 12 12 12 11 11 11 11 11 11 11 11 11 12 12 12 12 12 13 13 13 13 14 13 13 14 15 13 14 14 14
11 12 12 12 12 10 10 11 12 11 11 11 11 12 12 12 12 13 13 13 13 13 14 13 14 13 14 14 15 14 14 14
10 12 12 12 11 11 10 11 12 11 11 12 12 13 13 13 13 13 14 14 13 14 13 13 14 13 13 14 14 15 13 13

GFSFLT2_con_lsi_114.txt.gz
Lid_Strength_Index
7 7 7 7 7 6 6 6 6 6 5 5 5 5 5 6 6 6 5 6 6 6 6 6 6 6 6 7 7 7 7 7
8 8 7 7 7 6 6 6 6 6 6 6 6 6 5 6 6 6 6 6 6 6 6 6 6 6 6 6 7 8 8 8
8 8 8 7 7 7 7 7 7 7 7 7 7 6 6 6 6 7 7 7 6 6 6 6 6 6 6 7 6 7 7 7
7 8 8 8 8 8 8 8 7 7 7 7 7 7 7 7 7 7 7 7 7 6 6 7 7 6 7 7 7 7 6 6
8 9 9 9 9 9 9 9 8 8 9 8 8 8 8 7 7 7 7 7 7 7 7 6 7 7 8 9 7 7 6 7
9 9 10 10 10 10 9 9 9 9 10 9 9 9 9 8 8 8 8 8 7 8 7 6 7 7 8 9 8 7 7 7
10 10 10 11 10 9 9 10 10 10 10 10 10 10 9 9 9 7 8 8 7 8 7 7 8 7 8 9 9 9 9 8
10 10 11 11 11 10 11 11 11 11 11 11 10 9 9 8 8 7 7 7 7 6 7 8 8 8 9 10 10 10 10 10
10 11 12 11 11 11 12 12 12 10 11 11 10 9 10 8 8 8 8 7 9 9 9 9 9 10 10 10 10 11 11 11
10 11 11 11 11 12 12 13 11 9 11 11 10 10 10 9 9 9 10 10 11 12 11 12 12 11 10 11 11 11 11 11
9 10 11 11 12 12 13 13 11 11 11 12 11 10 10 10 10 12 13 13 13 13 12 14 14 12 11 11 11 11 11 10
11 11 12 12 12 12 13 12 12 12 12 12 10 11 11 11 11 11 13 14 14 13 14 14 14 12 12 12 12 12 11 10
11 12 12 12 12 12 13 13 12 13 12 11 11 11 11 12 13 12 13 13 14 14 14 14 14 14 13 13 13 12 11 11
12 12 12 12 12 13 13 12 12 13 13 13 13 13 13 13 14 13 12 13 13 13 13 13 13 13 12 13 13 12 12 12
12 13 13 13 13 13 13 12 12 12 13 13 14 13 14 14 14 14 14 13 12 13 13 13 13 13 13 13 13 12 12 12
13 13 13 12 13 14 13 12 12 12 13 12 13 13 13 14 15 14 13 13 13 13 12 12 12 12 13 13 13 12 13 13
12 13 13 12 12 12 11 11 12 12 12 12 13 13 13 13 13 14 14 14 14 13 13 13 13 12 12 13 13 14 14 14
13 14 13 13 12 11 11 11 12 12 12 12 12 12 13 13 13 14 14 14 14 14 14 15 14 14 15 14 14 14 15 14
12 13 13 13 12 11 11 12 12 12 12 13 12 13 13 14 14 15 15 15 15 15 15 14 15 15 16 16 15 14 14 15
12 13 13 13 12 12 12 12 12 12 13 13 13 14 14 14 15 15 16 16 16 16 16 15 15 16 16 16 16 16 14 13

GFSFLT2_con_lsi_117.txt.gz
Lid_Strength_Index
7 7 8 7 7 8 8 7 8 7 6 6 6 6 6 6 6 6 6 7 7 6 6 6 6 6 7 7 7 7 7 7
8 8 8 8 8 8 9 8 8 7 7 7 7 7 7 7 7 7 7 7 7 7 6 6 6 7 6 7 6 6 6 6
8 9 9 9 9 9 10 9 8 7 7 8 8 8 7 7 7 7 7 7 7 7 7 7 7 7 6 6 6 6 7 7
9 10 10 10 11 11 10 9 9 9 9 9 9 8 8 8 8 7 7 7 7 6 6 6 7 6 6 6 6 6 7 8
10 10 11 11 11 10 11 10 10 10 10 9 9 9 9 9 8 8 8 8 8 8 7 7 7 7 7 8 7 9 9 8
11 11 11 11 11 11 11 11 11 10 11 10 10 10 10 9 9 9 9 9 8 8 7 7 7 7 8 9 9 10 10 9
11 11 11 11 11 11 12 12 11 11 12 11 11 10 10 10 9 8 9 9 8 6 6 7 9 9 9 10 10 10 10 10
10 10 11 11 11 12 13 12 12 12 12 12 11 9 9 9 8 9 7 7 7 7 8 9 9 11 11 11 11 11 11 11
11 11 12 12 13 13 13 13 12 11 11 11 11 10 10 9 9 8 9 9 9 9 10 11 12 12 12 11 12 12 11 11
11 13 13 13 13 13 13 13 12 11 11 12 12 11 10 9 9 10 10 12 12 12 13 13 13 13 11 12 12 11 11 11
11 12 12 12 12 13 13 13 12 11 12 13 11 10 10 10 10 11 12 13 14 13 13 14 15 13 13 12 12 11 11 10
11 12 13 13 13 12 13 12 12 12 13 13 12 11 11 10 10 11 12 13 15 15 15 15 14 13 13 13 12 12 11 10
12 12 13 13 13 13 13 12 12 13 13 13 12 12 12 11 11 11 12 13 14 15 15 14 15 15 14 13 13 12 12 11
13 13 13 13 13 13 13 13 13 13 14 14 14 13 13 13 12 12 12 13 13 14 14 13 13 13 13 13 13 13 13 12
13 13 13 14 14 14 13 13 13 13 15 14 13 12 13 14 13 14 14 13 13 13 13 13 13 13 13 13 13 13 13 13
13 13 13 13 13 14 13 13 13 13 14 12 13 14 14 14 14 14 14 15 15 14 13 13 12 13 13 13 13 12 13 13
13 13 13 13 13 13 12 12 12 12 13 13 13 13 13 14 14 14 14 15 15 15 15 15 14 13 14 14 14 14 14 14
14 14 13 13 13 12 12 12 12 13 13 11 12 13 14 14 14 15 15 15 16 16 16 16 16 16 17 16 16 16 15 15
13 13 13 13 13 12 11 12 13 13 13 13 13 15 15 15 16 16 16 16 16 17 17 16 16 17 18 18 17 17 16 16
14 14 14 13 13 12 12 12 13 14 14 14 14 15 15 16 16 16 17 17 17 17 17 16 16 17 17 18 17 17 17 16

GFSFLT2_con_lsi_123.txt.gz
Lid_Strength_Index
6 6 6 5 5 4 4 3 3 3 3 3 3 3 3 3 2 2 1 2 2 2 2 3 3 3 3 2 2 2 2 2
7 7 6 6 5 5 5 5 4 4 4 4 4 4 4 3 3 2 3 3 3 3 3 3 3 3 2 2 2 2 2 3
7 7 7 6 6 6 6 6 6 6 6 6 6 5 5 4 5 4 4 4 3 3 4 3 3 3 3 3 4 4 4 4
7 7 7 7 7 8 8 8 7 6 7 7 7 6 6 6 5 5 4 4 4 4 4 3 3 3 7 8 7 5 5 5
8 9 9 9 8 8 9 9 8 8 8 8 8 8 7 6 6 5 5 4 4 4 3 3 3 3 8 9 8 6 5 5
9 11 11 11 9 9 10 10 10 9 9 9 8 7 7 6 5 5 4 4 4 4 4 4 5 6 9 9 9 5 6 6
10 10 11 11 11 11 11 11 9 9 9 8 8 7 6 6 6 6 6 5 4 4 5 6 6 6 10 9 9 7 7 8
11 11 12 10 10 9 9 9 9 9 9 8 8 7 6 6 7 6 6 6 6 6 7 7 8 7 9 10 10 9 9 10
11 12 12 11 10 9 9 9 9 9 9 9 8 6 6 6 6 7 7 7 8 8 8 7 7 8 9 11 11 11 11 11
12 12 11 10 10 10 10 10 9 8 7 7 7 6 6 7 8 8 9 10 10 10 9 8 8 9 11 11 12 12 11 11
11 11 12 11 10 9 11 10 8 7 7 7 7 7 7 7 9 10 11 11 12 12 11 10 10 10 12 12 12 12 12 11
12 12 11 11 9 9 8 8 8 7 7 7 7 7 7 8 8 9 10 11 11 10 10 11 12 12 13 13 13 12 12 12
11 10 11 10 9 8 8 8 7 8 8 8 8 8 8 8 9 9 10 12 12 12 12 11 13 14 15 14 14 13 13 13
11 10 9 9 9 8 8 8 7 7 8 8 9 8 8 9 9 10 12 12 13 13 14 14 13 15 15 15 15 14 14 13
10 10 9 9 9 9 9 8 8 9 9 9 9 9 9 10 10 10 11 11 12 14 14 15 15 16 16 16 15 13 13 12
9 9 9 9 9 10 9 9 9 9 9 11 9 10 10 10 11 11 11 12 13 13 13 14 15 15 14 14 14 12 12 12
9 9 9 9 10 10 9 9 9 10 10 10 10 10 10 11 11 12 12 12 13 12 12 12 13 13 14 14 14 14 14 14
10 10 10 10 10 10 9 9 10 10 11 12 11 11 11 12 12 13 13 13 13 13 14 15 14 13 13 13 13 13 14 14
9 9 9 10 10 10 10 10 10 11 11 11 13 12 12 12 12 13 12 13 14 14 14 14 16 14 14 14 14 14 14 14
10 10 9 10 10 10 10 10 10 11 11 12 12 12 12 12 12 12 12 13 13 13 13 13 14 13 13 13 13 13 13 13